Regional Weather Roundup
Issued by NWS

Home | Current Version | Previous Version | Text Only | Print | Product List | Glossary On
Versions: 1 2 3 4 5 6 7 8 9 10 11 12 13 14 15 16 17 18 19 20 21 22 23 24 25 26 27 28 29 30 31 32 33 34 35 36 37 38 39 40 41 42 43 44 45 46 47 48 49 50
000
ASUS43 KLOT 300309
RWRIL

ILLINOIS REGIONAL WEATHER ROUNDUP
NATIONAL WEATHER SERVICE CHICAGO/ROMEOVILLE IL
1000 PM CDT WED JUN 29 2022

NOTE: "FAIR" INDICATES FEW OR NO CLOUDS BELOW 12,000 FEET WITH NO
SIGNIFICANT WEATHER AND/OR OBSTRUCTIONS TO VISIBILITY.

* THESE STATIONS ARE NOT UNDER NWS QUALITY CONTROL. THEY ALSO MAY NOT
  REPORT WEATHER SUCH AS PRECIPITATION OR FOG.

ILZ001-002-007-009-015-016-024-300400-
NORTHWEST ILLINOIS

CITY           SKY/WX    TMP DP  RH WIND       PRES   REMARKS
MOLINE         CLEAR     80  66  62 S9        30.07R HX  82
STERLING*      CLEAR     77  69  76 VRB3      30.10R
$$

ILZ003-004-008-010-011-017-018-300400-
NORTH CENTRAL ILLINOIS

CITY           SKY/WX    TMP DP  RH WIND       PRES   REMARKS
ROCKFORD       CLEAR     78  65  63 S8        30.11R HX  80
FREEPORT*      CLEAR     75  72  90 S7        30.11S
ROCHELLE*      CLEAR     72  68  87 S8        30.12S
DE KALB*       CLEAR     72  64  74 S7        30.14R
PERU*          CLEAR     74  68  79 S7        30.12R
$$

ILZ005-006-012>014-019>023-300400-
NORTHEAST ILLINOIS

CITY           SKY/WX    TMP DP  RH WIND       PRES   REMARKS
CHICAGO-OHARE  CLEAR     76  58  53 E5        30.13R
CHICAGO-MIDWAY CLEAR     78  60  53 SE7       30.13R
AURORA         CLEAR     73  65  75 S3        30.13R
JOLIET*        CLEAR     76  65  67 CALM      30.14R
WAUKEGAN       CLEAR     66  64  93 CALM      30.13R
DUPAGE AIRPORT CLEAR     76  61  59 E6        30.13R
KANKAKEE*      CLEAR     77  66  69 SW6       30.16R
WHEELING       CLEAR     73  62  68 CALM      30.15R
MORRIS*        CLEAR     76  65  70 S5        30.13R
ROMEOVILLE*    CLEAR     77  63  63 SW5       30.14R
LANSING*       CLEAR     74  62  66 CALM      30.14R
NORTHERLY ISL*   N/A     69  62  78 CALM        N/A
$$

LMZ740>746-300400-
SOUTHERN LAKE MICHIGAN

STATION/POSITION SKY/WX   TEMP    WIND        PRES    VSBY  WAVE
                          AIR SEA DIR/SP/G                  HT/PER
                          (F)     (DEG/KT/KT) (MB)    (MI)  (FT/S)
SOUTHERN BUOY              66 66   90/  6/  8 1020.0F         0
WINTHROP HARBOR            64 63  270/  2/  4   N/A           1
WAUKEGAN HARBOR            65 67  360/  2/  4 1019.8          1
WILMETTE HARBOR               69   70/  2/  2 1019.2          1/ 3
NORTHERLY ISL              69      CALM  /  1   N/A
CALUMET HARBOR             71      30/  2/  3 1018.9
BURNS HARBOR               74      60/  3/  3 1020.7R
MICHIGAN CITY              77      60/  3/  4 1019.2R
MICHIGAN CITY 6N           71      50/  4/  6   N/A           1
ST. JOSEPH                 76 75  230/  6/  8 1020.6          0
$$

ILZ025>027-034>036-040-047-049-050-058-095>099-300400-
WEST-CENTRAL ILLINOIS

CITY           SKY/WX    TMP DP  RH WIND       PRES   REMARKS
QUINCY         CLEAR     78  64  61 SE7       30.12R HX  80
GALESBURG*     CLEAR     74  68  80 S6        30.12S
MACOMB*        CLEAR     73  63  72 S7        30.13S
JACKSONVILLE*  CLEAR     76  63  63 S8        30.15R
PITTSFIELD*    CLEAR     74  65  75 S5        30.15R
$$

ILZ028>032-037-038-041>044-048-051>054-059>061-300400-
CENTRAL ILLINOIS

CITY           SKY/WX    TMP DP  RH WIND       PRES   REMARKS
PONTIAC        CLEAR     77  64  64 S8        30.16R
BLOOMINGTON    CLEAR     73  65  75 SW7       30.18R
DECATUR        CLEAR     75  65  70 S6        30.18R
PEORIA         CLEAR     78  66  66 S8        30.13R HX  80
LACON*         CLEAR     75  70  83 CALM      30.12R
LINCOLN*       CLEAR     75  66  75 S5        30.17R
SPRINGFIELD    CLEAR     77  61  57 S8        30.16R
TAYLORVILLE    CLEAR     71  63  77 S6        30.18R
$$

ILZ033-039-045-046-055>057-062-063-300400-
EAST-CENTRAL ILLINOIS

CITY           SKY/WX    TMP DP  RH WIND       PRES   REMARKS
CHAMPAIGN      CLEAR     74  62  66 S7        30.19R
DANVILLE*      CLEAR     72  61  69 S6        30.20R
RANTOUL*       CLEAR     73  62  67 S6        30.18R
MATTOON        CLEAR     74  61  63 S6        30.18R
PARIS*         CLEAR     65  64  97 CALM      30.20R
$$

ILZ079-100>102-300400-
SOUTHWEST ILLINOIS

CITY           SKY/WX    TMP DP  RH WIND       PRES   REMARKS
ALTON          CLEAR     73  61  64 SE7       30.17R
BELLEVILLE     CLEAR     74  62  66 SE3       30.16R
CAHOKIA*       CLEAR     73  62  68 S3        30.16R
SPARTA*        CLEAR     74  61  62 SE3       30.19R
$$

ILZ064>066-069>071-074>076-080>082-084>086-088>090-092>094-300400-
SOUTH-CENTRAL ILLINOIS

CITY           SKY/WX    TMP DP  RH WIND       PRES   REMARKS
CARBONDALE     CLEAR     70  60  70 CALM      30.18R
EFFINGHAM*     CLEAR     70  64  80 SE3       30.21R
MARION         CLEAR     67  62  84 CALM      30.20R
MT. VERNON     CLEAR    N/A N/A N/A CALM      30.20R
CENTRALIA*     CLEAR     70  62  76 SE6       30.19R
SALEM*         CLEAR     74  60  61 SE5       30.19R
METROPOLIS*    CLEAR     65  62  91 CALM      30.18S
$$

ILZ067-068-072-073-078-083-087-091-300400-
SOUTHEAST ILLINOIS

CITY           SKY/WX    TMP DP  RH WIND       PRES   REMARKS
LAWRENCEVILLE  CLEAR     71  64  78 CALM      30.20R
FLORA*         CLEAR     68  64  88 CALM      30.20R
FAIRFIELD*     CLEAR     69  61  75 CALM      30.19R
HARRISBURG*    CLEAR     67  55  64 CALM      30.20R
ROBINSON*      CLEAR     67  61  82 S3        30.20R
CARMI*         CLEAR     70  64  83 CALM      30.19R
$$

ABBREVIATIONS USED IN REMARKS
   TC - TEMPERATURE IN CELSIUS
  WCI - WIND CHILL INDEX
   HX - HEAT INDEX
  VSB - VISIBILITY
$$




USA.gov is the U.S. government's official web portal to all federal, state and local government web resources and services.